Regional Weather Roundup
Issued by NWS

Home | Current Version | Previous Version | Text Only | Print | Product List | Glossary Off
Versions: 1 2 3 4 5 6 7 8 9 10 11 12 13 14 15 16 17 18 19 20 21 22 23 24 25 26 27 28 29 30 31 32 33 34 35 36 37 38 39 40 41 42 43 44 45 46 47 48 49 50

000
ASUS45 KSLC 251210
RWRUT

UTAH REGIONAL WEATHER ROUNDUP
NATIONAL WEATHER SERVICE SALT LAKE CITY UT
500 AM MST TUE NOV 25 2014

UTZ001>011-023>025-251300-

NORTHERN UTAH

CITY           SKY/WX    TMP DP  RH WIND       PRES   REMARKS
HILL AFB       CLOUDY    33  19  54 S15       30.35F WCI  23
LOGAN          CLOUDY    31  24  75 N5        30.32F WCI  26
OGDEN          CLOUDY    34  19  54 S13       30.35F WCI  25
PROVO AIRPORT  CLOUDY    27  19  74 SE3       30.41S
SALT LAKE CITY CLOUDY    33  21  61 E5        30.37S WCI  29
VERNAL         PTCLDY    20  12  71 CALM      30.30F
WENDOVER       CLOUDY    30  21  69 E3        30.35F
HEBER CITY     CLOUDY    19  16  86 CALM      30.37S

$$

UTZ012>022-026-027-251300-

SOUTHERN/CENTRAL UTAH

CITY           SKY/WX    TMP DP  RH WIND       PRES   REMARKS
BLANDING       PTCLDY    20   7  58 CALM      30.46S
BRYCE CANYON   PTCLDY    20   6  55 W13       30.39F WCI   7
CEDAR CITY     PTCLDY    18  11  74 SE3       30.42F
DELTA          CLOUDY    23  19  85 NE5       30.43R WCI  17
MILFORD        PTCLDY    24  13  62 SW18      30.40F WCI  10
MOAB/CYNLANDS  CLOUDY    22   7  52 CALM      30.38S
PRICE          PTCLDY    18   8  65 N8        30.34F WCI   8
ST GEORGE      MOSUNNY   34   5  29 SE8       30.50R WCI  27
KANAB          PTCLDY    14   3  62 CALM      30.50F

$$

REGIONAL REPORTS     COLORADO/ARIZONA

CITY           SKY/WX    TMP DP  RH WIND       PRES   REMARKS
CRAIG, CO      CLOUDY    14   8  77 CALM      30.28F
GRAND JUNCTION CLOUDY    24  15  68 SE12      30.39S WCI  13
RIFLE          CLOUDY    15  11  83 E5        30.38F WCI   8
MONTROSE       CLOUDY    19  12  74 SE6       30.41S WCI  11
CORTEZ         CLEAR     11   6  81 NE6       30.40F WCI   1
PAGE, AZ       NOT AVBL
GRAND CANYON   MOCLDY     4  -9  55 CALM      30.46S
KINGMAN        CLEAR     33   2  26 NE7       30.45S WCI  27
FLAGSTAFF      PTCLDY    15  -2  46 CALM      30.43S

$$

REGIONAL REPORTS    NEVADA/IDAHO/WYOMING

CITY           SKY/WX    TMP DP  RH WIND       PRES   REMARKS
LAS VEGAS, NV  CLEAR     43  11  27 S6        30.41S
ELY            PTCLDY    15  52 100 S12       30.46F WCI   2
ELKO           CLOUDY    34  23  64 W3        30.42F
POCATELLO, ID  CLOUDY    36  30  79 SW24G35   30.24S WCI  24
BURLEY         CLOUDY    39  28  64 SW16G23   30.23F WCI  30
EVANSTON, WY   CLOUDY    20  12  71 SW12      30.24F WCI   8
ROCK SPRINGS   CLOUDY    23  11  60 W23G32    30.15F WCI   7
KEMMERER       FLURRIES  21  18  86 W7        30.20F WCI  13

$$



USA.gov is the U.S. government's official web portal to all federal, state and local government web resources and services.